Change the Weather History Date:

Wednesday, May 1, 2013

  Actual Average Record
Temperature  
Mean Temperature 62 °F -  
Max Temperature 79 °F 63 °F 80 °F (2001)
Min Temperature 48 °F 42 °F 27 °F (2005)
Degree Days  
Heating Degree Days 4    
Growing Degree Days 12 (Base 50)    
Moisture  
Dew Point 45 °F    
Average Humidity 56    
Maximum Humidity 69    
Minimum Humidity 38    
Precipitation  
Precipitation 0.00 in - - ()
Sea Level Pressure  
Sea Level Pressure 30.07 in    
Wind  
Wind Speed 8 mph (North)    
Max Wind Speed 22 mph    
Max Gust Speed 31 mph    
Visibility 10 miles    
Events      
Averages and records for this station are not official NWS values.
T = Trace of Precipitation, MM = Missing Value Source: NWS Daily Summary

Daily Weather History Graph

Daily Weather History Graph

Search for Another Location

Airport or City:

Trip Planner

Search our weather history database for the weather conditions in past years. The results will help you decide how hot, cold, wet, or windy it might be!

Date:

Astronomy

May. 01, 2013 Rise Set
Actual Time 5:53 AM CDT 8:02 PM CDT
Civil Twilight 5:22 AM CDT 8:33 PM CDT
Nautical Twilight 4:44 AM CDT 9:12 PM CDT
Astronomical Twilight 4:01 AM CDT 9:54 PM CDT
Moon 1:12 AM CDT (5/1) 11:32 AM CDT (5/1)
Length of Visible Light 15h 11m
Length of Day
14h 08m
Waning Gibbous, 59% of the Moon is Illuminated
May 1
Waning Gibbous
May 2
Last Quarter
May 9
New
May 17
First Quarter
May 24
Full

Hourly Weather History & Observations

Time (CDT) Temp. Dew Point Humidity Pressure Visibility Wind Dir Wind Speed Gust Speed Precip Events Conditions
12:56 AM 64.0 °F 44.1 °F 48% 29.90 in 10.0 mi North 15.0 mph 21.9 mph N/A   Partly Cloudy
1:56 AM 62.1 °F 45.0 °F 53% 29.91 in 10.0 mi Calm Calm - N/A   Clear
2:56 AM 59.0 °F 46.0 °F 62% 29.92 in 10.0 mi NE 6.9 mph - N/A   Clear
3:56 AM 55.9 °F 46.0 °F 69% 29.94 in 10.0 mi NNW 3.5 mph - N/A   Clear
4:56 AM 57.0 °F 46.0 °F 67% 29.97 in 10.0 mi Calm Calm - N/A   Clear
5:56 AM 55.9 °F 46.0 °F 69% 30.00 in 10.0 mi Calm Calm - N/A   Clear
6:56 AM 57.0 °F 46.0 °F 67% 30.03 in 10.0 mi Variable 3.5 mph - N/A   Partly Cloudy
7:56 AM 59.0 °F 46.9 °F 64% 30.06 in 10.0 mi Calm Calm - N/A   Clear
8:56 AM 62.1 °F 46.0 °F 56% 30.08 in 10.0 mi North 12.7 mph - N/A   Scattered Clouds
10:08 AM 62.6 °F 48.2 °F 59% 30.10 in 9.0 mi NNE 10.4 mph - N/A   Partly Cloudy
10:56 AM 64.9 °F 48.0 °F 54% 30.08 in 10.0 mi NE 9.2 mph 16.1 mph N/A   Clear
11:56 AM 68.0 °F 48.9 °F 50% 30.08 in 10.0 mi North 5.8 mph - N/A   Clear
1:56 PM 73.9 °F 50.0 °F 43% 30.08 in 10.0 mi Calm Calm - N/A   Clear
2:56 PM 75.9 °F 50.0 °F 40% 30.07 in 10.0 mi NNE 9.2 mph - N/A   Clear
4:56 PM 75.0 °F 48.0 °F 38% 30.08 in 10.0 mi NNW 18.4 mph - N/A   Scattered Clouds
5:56 PM 72.0 °F 46.0 °F 40% 30.09 in 10.0 mi North 18.4 mph - N/A   Clear
6:56 PM 66.9 °F 45.0 °F 45% 30.11 in 10.0 mi North 21.9 mph 31.1 mph N/A   Partly Cloudy
7:56 PM 61.0 °F 43.0 °F 52% 30.17 in 10.0 mi NNW 11.5 mph 20.7 mph N/A   Clear
8:56 PM 55.0 °F 42.1 °F 62% 30.22 in 10.0 mi North 15.0 mph 23.0 mph N/A   Mostly Cloudy
9:56 PM 50.0 °F 39.0 °F 66% 30.25 in 10.0 mi NNW 11.5 mph 20.7 mph N/A   Partly Cloudy
10:56 PM 48.0 °F 37.0 °F 66% 30.24 in 10.0 mi North 10.4 mph 25.3 mph N/A   Mostly Cloudy
11:56 PM 48.0 °F 37.0 °F 66% 30.24 in 10.0 mi North 6.9 mph - N/A   Partly Cloudy